Location: NJAA Observatory
(40.6819°N, 74.8979°W)
Time: 21:25:45
(UTC-05:00)

Iridium 4 - Visible Passes

Search period start: 05 March 2015 00:00
Search period end: 15 March 2015 01:00
Orbit: 774 x 777 km, 86.4° (Epoch: 05 March)

Date Brightness Start Highest point End Pass type
(mag) Time Alt. Az. Time Alt. Az. Time Alt. Az.
05 Mar 8.1 20:40:13 10° NNE 20:40:13 10° NNE 20:40:13 10° NNE visible
06 Mar 8.4 21:46:43 10° NNW 21:46:56 11° NNW 21:46:56 11° NNW visible
07 Mar 7.9 21:12:17 10° N 21:13:12 15° N 21:13:12 15° N visible
08 Mar 7.5 21:38:11 10° N 21:39:30 18° N 21:39:30 18° N visible
09 Mar 7.4 21:04:25 10° NNE 21:05:50 17° NNE 21:05:50 17° NNE visible
09 Mar 8.1 22:45:08 10° NNW 22:46:17 16° NNW 22:46:17 16° NNW visible
10 Mar 7.5 20:31:14 10° NE 20:32:12 13° NE 20:32:12 13° NE visible
10 Mar 7.4 22:10:30 10° NNW 22:12:39 25° NNW 22:12:39 25° NNW visible
11 Mar 6.7 21:36:14 10° N 21:39:03 33° N 21:39:03 33° N visible
12 Mar 6.5 21:02:16 10° NNE 21:05:29 32° NE 21:05:29 32° NE visible
12 Mar 7.9 22:43:40 10° NNW 22:45:57 19° NW 22:45:57 19° NW visible
13 Mar 6.8 20:28:43 10° NNE 20:31:57 22° ENE 20:31:57 22° ENE visible
13 Mar 7.0 22:08:47 10° NNW 22:12:25 34° NW 22:12:25 34° NW visible
14 Mar 7.3 19:56:10 10° NE 19:58:08 12° ENE 19:58:30 12° ENE visible
14 Mar 5.7 21:34:21 10° N 21:38:58 66° NW 21:38:58 66° NW visible
